Regional Weather Roundup
Issued by NWS

Home | Current Version | Previous Version | Text Only | Print | Product List | Glossary Off
Versions: 1 2 3 4 5 6 7 8 9 10 11 12 13 14 15 16 17 18 19 20 21 22 23 24 25 26 27 28 29 30 31 32 33 34 35 36 37 38 39 40 41 42 43 44 45 46 47 48 49 50

000
ASUS43 KLMK 260102
RWRKY
KENTUCKY REGIONAL WEATHER ROUNDUP
NATIONAL WEATHER SERVICE LOUISVILLE KY
900 PM EDT SUN SEP 25 2016

NOTE "FAIR" INDICATES FEW OR NO CLOUDS BELOW 12,000 FEET
WITH NO SIGNIFICANT WEATHER AND/OR OBSTRUCTIONS TO VISIBILITY.

KYZ001>023-026-027-061>063-070>075-260200-
WESTERN AND SOUTH CENTRAL KENTUCKY

CITY           SKY/WX    TMP DP  RH WIND       PRES   REMARKS
PADUCAH        CLEAR     75  71  87 S3        29.99R
HENDERSON      CLEAR     75  66  73 CALM      29.99R
OWENSBORO      CLEAR    N/A N/A N/A MISG      30.00R
HOPKINSVILLE   CLEAR     79  66  64 CALM      30.01S
BOWLING GREEN  CLEAR     77  67  71 CALM      30.02R
GLASGOW        NOT AVBL
$$

KYZ024-025-028>034-038-045-046-053-260200-
NORTH CENTRAL KENTUCKY

CITY           SKY/WX    TMP DP  RH WIND       PRES   REMARKS
LOUISVILLE/SDF PTCLDY    83  63  50 SE5       30.00S
LOUISVILLE/LOU CLEAR     80  65  59 CALM      30.01R
FORT KNOX      CLEAR     71  66  83 SW2       30.01R
$$

KYZ035>037-039>044-047>052-055>060-089>105-260200-
NORTHEAST KENTUCKY

CITY           SKY/WX    TMP DP  RH WIND       PRES   REMARKS
LEXINGTON      CLEAR     76  65  68 CALM      30.05R
COVINGTON      CLEAR     75  66  73 CALM      30.04
FRANKFORT      CLEAR     75  66  73 CALM      30.02S
$$

KYZ054-064>069-076>088-106>120-260200-
SOUTHEAST KENTUCKY

CITY           SKY/WX    TMP DP  RH WIND       PRES   REMARKS
JACKSON        CLEAR     76  65  68 CALM      30.08R
LONDON         CLEAR     74  65  73 CALM      30.07R
SOMERSET       CLEAR     72  64  78 CALM      30.06R
MIDDLESBORO    CLEAR     73  67  82 W3        30.08R
MONTICELLO     CLEAR     69  63  81 NE9       30.07R
$$




USA.gov is the U.S. government's official web portal to all federal, state and local government web resources and services.